EW3205 Weather Reports


time (UTC)temp
F
wind
direction
speed
knots
gust
knots
rain 1hr
in
rain 24hr
in
rain mn
in
humidity
%
barometer
mb
20260503004517 53 242 1.7 2.6 0.00 0.00 0.00 83 1009.7
20260503003013 53 225 1.7 3.5 0.00 0.00 0.00 83 1009.8
20260503001511 53 230 0.0 2.6 0.00 0.00 0.00 83 1009.9
20260503000010 53 226 0.9 2.6 0.00 0.00 0.00 83 1009.9
20260502234521 53 324 0.0 2.6 0.00 0.00 0.00 83 1009.9
20260502233007 54 233 0.0 3.5 0.00 0.00 0.00 80 1010.0
20260502231506 54 236 1.7 3.5 0.00 0.00 0.00 80 1010.0
20260502230006 54 224 0.9 2.6 0.00 0.00 0.00 80 1009.9
20260502224506 54 219 0.0 0.0 0.00 0.00 0.00 80 1010.0
20260502223004 54 219 0.0 0.0 0.00 0.00 0.00 79 1010.1
20260502221503 54 219 0.0 2.6 0.00 0.00 0.00 79 1010.0
20260502220101 54 198 0.9 2.6 0.00 0.00 0.00 78 1010.1
20260502214558 54 182 0.9 3.5 0.00 0.00 0.00 78 1010.4
20260502213107 54 185 1.7 4.3 0.00 0.00 0.00 76 1010.6
20260502211557 54 171 0.9 2.6 0.00 0.00 0.00 75 1010.7
20260502210056 54 205 0.9 3.5 0.00 0.00 0.00 75 1010.8
20260502204609 54 242 1.7 3.5 0.00 0.00 0.00 75 1010.9
20260502203056 54 230 2.6 6.1 0.00 0.00 0.00 75 1010.8
20260502201554 54 257 2.6 6.1 0.00 0.00 0.00 75 1011.0
20260502200056 55 235 1.7 7.8 0.00 0.00 0.00 75 1011.2
20260502194554 55 255 2.6 7.8 0.00 0.00 0.00 74 1011.1
20260502193054 55 278 4.3 8.7 0.00 0.00 0.00 74 1011.1
20260502191553 55 264 2.6 7.0 0.00 0.00 0.00 75 1011.2
20260502190053 55 251 2.6 6.1 0.00 0.00 0.00 72 1011.1
20260502184557 55 286 0.9 4.3 0.00 0.00 0.00 69 1011.0
20260502183052 57 304 0.9 3.5 0.00 0.00 0.00 68 1010.9
20260502181551 58 318 0.9 2.6 0.00 0.00 0.00 68 1011.0
20260502180105 59 354 0.0 2.6 0.00 0.00 0.00 67 1010.7
20260502163046 62 238 4.3 14.8 0.00 0.00 0.00 59 1011.4
20260502161544 64 181 6.1 13.0 0.00 0.00 0.00 56 1011.1
20260502151538 65 170 5.2 12.2 0.00 0.00 0.00 57 1011.8
20260502123020 64 155 5.2 10.4 0.00 0.00 0.00 62 1013.8
20260502121534 65 182 6.1 12.2 0.00 0.00 0.00 61 1013.9
20260502114516 64 152 7.8 13.0 0.00 0.00 0.00 61 1014.2
20260502113014 63 167 7.8 13.9 0.00 0.00 0.00 62 1014.4
20260502111513 63 204 8.7 14.8 0.00 0.00 0.00 61 1014.4
20260502110011 64 159 5.2 12.2 0.00 0.00 0.00 62 1014.5
20260502104509 63 200 7.8 13.0 0.00 0.00 0.00 63 1014.6
20260502103006 63 198 7.8 13.9 0.00 0.00 0.00 62 1014.8
20260502101506 62 193 4.3 14.8 0.00 0.00 0.00 64 1014.9
20260502100104 61 190 9.6 15.6 0.00 0.00 0.00 63 1015.0
20260502071527 57 190 4.3 12.2 0.00 0.00 0.00 73 1015.7
20260502070023 56 157 6.1 10.4 0.00 0.00 0.00 74 1015.8
20260502064516 56 153 5.2 9.6 0.00 0.00 0.00 73 1015.9
20260502063019 55 199 6.1 13.9 0.00 0.00 0.00 75 1016.1
20260502061507 54 164 7.0 13.0 0.00 0.00 0.00 76 1016.3
20260502060004 54 199 7.0 14.8 0.00 0.00 0.00 77 1016.4
20260502054501 53 188 6.1 10.4 0.00 0.00 0.00 78 1016.4
20260502053059 52 173 2.6 12.2 0.00 0.00 0.00 79 1016.5
20260502051556 52 185 7.8 12.2 0.00 0.00 0.00 79 1016.7
20260502050054 52 185 5.2 9.6 0.00 0.00 0.00 79 1016.8
20260502044552 51 179 5.2 10.4 0.00 0.00 0.00 80 1017.0
20260502043051 50 171 3.5 12.2 0.00 0.00 0.00 82 1017.2
20260502041548 50 181 3.5 7.8 0.00 0.00 0.00 83 1017.1
20260502040045 49 186 2.6 7.0 0.00 0.00 0.00 84 1017.4
20260502034543 49 192 1.7 5.2 0.00 0.00 0.00 85 1017.5
20260502033046 48 229 0.0 4.3 0.00 0.00 0.00 86 1017.7
20260502031539 49 135 0.9 5.2 0.00 0.00 0.00 85 1018.1
20260502030037 49 185 2.6 7.8 0.00 0.00 0.00 86 1018.3
20260502024536 48 185 1.7 5.2 0.00 0.00 0.00 87 1018.5
20260502023035 48 189 1.7 5.2 0.00 0.00 0.00 86 1018.7
20260502021533 48 225 2.6 5.2 0.00 0.00 0.00 86 1018.8
20260502020033 48 217 0.9 2.6 0.00 0.00 0.00 86 1019.0
20260502014531 48 207 1.7 3.5 0.00 0.00 0.00 87 1019.3
20260502013029 48 200 0.9 4.3 0.00 0.00 0.00 86 1019.4
20260502011527 48 198 0.9 2.6 0.00 0.00 0.00 87 1019.7
20260502010025 48 196 0.9 3.5 0.00 0.00 0.00 88 1019.8